Location: Napoli
(40.8639°N, 14.2562°E)
Time: 01:59:08
(UTC+01:00)

ISS - Visible Passes

Search period start: 19 December 2018 00:00
Search period end: 29 December 2018 00:00
Orbit: 401 x 408 km, 51.6° (Epoch: 19 December)

Date Brightness Start Highest point End Pass type
(mag) Time Alt. Az. Time Alt. Az. Time Alt. Az.
23 Dec -1.1 06:11:16 10° S 06:13:53 22° SE 06:16:30 10° E visible
24 Dec -0.5 05:20:37 10° SSE 05:21:52 12° SE 05:23:07 10° ESE visible
25 Dec -3.1 06:02:29 10° SW 06:05:42 55° SE 06:08:55 10° ENE visible
26 Dec -1.9 05:13:13 27° SSE 05:13:33 28° SE 05:16:25 10° ENE visible
26 Dec -3.1 06:46:54 10° W 06:49:58 35° NNW 06:53:02 10° NE visible
27 Dec -3.8 05:56:44 41° W 05:57:37 61° NNW 06:00:53 10° NE visible
28 Dec -1.6 05:07:12 23° ENE 05:07:12 23° ENE 05:08:36 10° ENE visible
28 Dec -2.3 06:39:54 12° WNW 06:42:06 21° NNW 06:44:42 10° NNE visible
